Location: Buckland
(65.9785°N, 161.1281°W)
Time: 22:04:53
(UTC+00:00)

PRISM - Pass Details

Date: 25 January 2021
Orbit: 565 x 584 km, 98.2° (Epoch: 06 March)

Event Time Altitude Azimuth Distance (km) Brightness Sun altitude
Rises 18:06:28 0° 36° (NE) 2,786 ? -10.3°
Reaches altitude 10° 18:10:21 10° 358° (N) 1,890 ? -9.9°
Maximum altitude 18:11:14 11° 345° (NNW) 1,851 ? -9.9°
Drops below altitude 10° 18:12:06 10° 333° (NNW) 1,890 ? -9.8°
Enters shadow 18:12:37 - 326° (NW) 1,949 ? -9.7°
